AirNav   ProFlight Series 2 Aviation Headset
 
 1517 users online  

31E Eagles Nest Airport
West Creek, New Jersey, USA

GOING TO WEST CREEK?


FAA INFORMATION EFFECTIVE 08 OCTOBER 2020

Location

FAA Identifier: 31E
Lat/Long: 39-39-55.6350N 074-18-28.9600W
39-39.927250N 074-18.482667W
39.6654542,-74.3080444
(estimated)
Elevation: 38.6 ft. / 12 m (estimated)
Variation: 12W (1985)
From city: 2 miles N of WEST CREEK, NJ
Time zone: UTC -4 (UTC -5 during Standard Time)
Zip code: 08092

Airport Operations

Airport use: Open to the public
Activation date: 04/1989
Control tower: no
ARTCC: WASHINGTON CENTER
FSS: MILLVILLE FLIGHT SERVICE STATION
NOTAMs facility: MIV (NOTAM-D service available)
Attendance: NOV-MAR 7 SR-SS, APR-OCT 7 0900-1700
Wind indicator: yes
Segmented circle: no
Lights: ACTIVATE PAPI RY 14/32; HIRL RY 14/32 - CTAF.
Beacon: white-green (lighted land airport)
Operates sunset to sunrise.

Airport Communications

CTAF: 122.9
ATLANTIC CITY APPROACH: 134.25
ATLANTIC CITY DEPARTURE: 134.25
WX AWOS-3PT at MJX (16 nm N): 119.875 (732-797-2542)
WX ASOS at ACY (18 nm SW): PHONE 609-272-9311

Nearby radio navigation aids

VOR radial/distance  VOR name  Freq  Var
CYNr158/10.7COYLE VORTAC113.4010W
ACYr055/17.7ATLANTIC CITY VORTAC117.1510W
GXUr159/24.5MC GUIRE VORTAC110.6012W
VCNr086/31.4CEDAR LAKE VOR/DME115.2010W
RBVr175/33.3ROBBINSVILLE VORTAC113.8010W
COLr201/39.4COLTS NECK VOR/DME115.4011W

 
NDB name  Hdg/Dist  Freq  Var  ID
LAKEHURST188/22.839611WNEL -. . .-..

Airport Services

Fuel available: 100LL
Parking: tiedowns
Airframe service: MAJOR
Powerplant service: MAJOR
Bottled oxygen: NONE
Bulk oxygen: NONE

Runway Information

Runway 14/32

Dimensions: 3670 x 60 ft. / 1119 x 18 m
Surface: asphalt, in good condition
Runway edge lights: high intensity
RUNWAY 14  RUNWAY 32
Latitude: 39-40.137167N39-39.717333N
Longitude: 074-18.764167W074-18.201167W
Elevation: 31.2 ft.38.6 ft.
Traffic pattern: leftright
Runway heading: 146 magnetic, 134 true326 magnetic, 314 true
Displaced threshold: 400 ft.400 ft.
Markings: nonprecision, in good conditionnonprecision, in good condition
Visual slope indicator: 2-light PAPI on left (4.00 degrees glide path)2-light PAPI on left (4.00 degrees glide path)
PAPI UNUSABLE 5 DEG LEFT OF COURSE.
Touchdown point: yes, no lightsyes, no lights
Obstructions: 58 ft. tree, 785 ft. from runway, 126 ft. right of centerline, 10:1 slope to clear64 ft. tree, 484 ft. from runway, 92 ft. right of centerline, 4:1 slope to clear
RY 32 70 FT HIGH TREELINE CROSSING EXTENDED CNTRLN BEGINNING 450 FT FM THLD.

Airport Ownership and Management from official FAA records

Ownership: Privately-owned
Owner: EAGLES NEST AIRPORT LLC
PO BOX 166
TENNENT, NJ 07763
Phone 732-446-6483
Manager: PETER WEIDHORN
60 THOMAS DRIVE
MANALAPAN, NJ 07726
Phone 732-740-2510

Airport Operational Statistics

Aircraft based on the field: 43
Single engine airplanes: 40
Helicopters: 3
    
Aircraft operations: avg 20/week *
83% transient general aviation
17% local general aviation
* for 12-month period ending 01 April 2015

Additional Remarks

REMOTE CTL ACFT OPER ADJ TO RY.
PARACHUTE DROP ZONE SW CORNER OF ARPT
DEER ON & INVOF ARPT.
FOR CD CTC WASHINGTON ARTCC AT 703-771-3587.
BTN THE HRS OF SS-SR TAKE OFF RWY 32 ONLY, LDG RWY 14 ONLY.

Instrument Procedures

NOTE: All procedures below are presented as PDF files. If you need a reader for these files, you should download the free Adobe Reader.

NOT FOR NAVIGATION. Please procure official charts for flight.
FAA instrument procedures published for use from 08 October 2020 at 0901Z to 05 November 2020 at 0900Z.

 
IAPs - Instrument Approach Procedures
RNAV (GPS)-A   download (169KB)
RNAV (GPS)-B   download (174KB)
NOTE: Special Take-Off Minimums/Departure Procedures apply   download (249KB)

Other nearby airports with instrument procedures:

KMJX - Ocean County Airport (16 nm N)
KACY - Atlantic City International Airport (18 nm SW)
N81 - Hammonton Municipal Airport (21 nm W)
KNEL - Lakehurst Maxfield Field Airport (22 nm N)
KWRI - McGuire Field (Joint Base Mc Guire Dix Lakehurst) Airport (25 nm NW)
 
Loc | Ops | Rwys | IFR | FBO | Links
Com | Nav | Svcs | Stats | Notes
Area around 31E (Eagles Nest Airport)
 
Road maps at: MapQuest Bing Google
 
Aerial photo
WARNING: Photo may not be current or correct
Aerial photo of 31E (Eagles Nest Airport)
Photo courtesy of FlyinPhilsPhotos.com
Photo taken 30-Sep-2007
looking north.

Do you have a better or more recent aerial photo of Eagles Nest Airport that you would like to share? If so, please send us your photo.

 
Sectional chart

 
Airport distance calculator
Flying to Eagles Nest Airport? Find the distance to fly.

From to 31E

Sunrise and sunset
Times for 21-Oct-2020
 Local
(UTC-4)
 Zulu
(UTC)
Morning civil twilight06:4810:48
Sunrise07:1611:16
Sunset18:0822:08
Evening civil twilight18:3522:35

Current date and time
Zulu (UTC)  21-Oct-2020 20:17:06
Local (UTC-4)  21-Oct-2020 16:17:06
 
METAR
KMJX 
16nm N 
AWOS-3 119.875 732-244-4450
211956Z AUTO 18007KT 10SM CLR 24/21 A3022 RMK AO2 SLP235 T02440206
KACY 
17nm SW 
211954Z 18007KT 10SM CLR 22/19 A3022 RMK AO2 SLP233 T02220189
KNEL 
21nm N 
212000Z 19007KT 10SM SCT027 BKN038 BKN060 26/20 A3019 RMK AO2 $
KWRI 
25nm NW 
211956Z 19010KT 10SM FEW039 25/18 A3019 RMK AO2A SLP222 T02540181 $
KVAY 
29nm NW 
ASOS 119.325 609-267-1176
211954Z AUTO VRB04KT 10SM FEW034 SCT045 SCT050 26/19 A3019 RMK AO2 SLP223 T02560189
KBLM 
31nm N 
AWOS-3 121.625 732-938-3330
211956Z AUTO 13006KT 10SM CLR 22/19 A3023 RMK AO2 SLP235 T02220194
TAF
KACY 
17nm SW 
211720Z 2118/2218 19008KT P6SM SCT035 TEMPO 2118/2119 BKN020 FM220500 VRB03KT 5SM BR SCT010 FM220700 VRB03KT 1SM BR OVC004 FM221400 VRB04KT P6SM SCT008 BKN025
NOTAMs
Click for the latest NOTAMs
NOTAMs are issued by the DoD/FAA and will open in a separate window not controlled by AirNav.

 

 
 

FBO, Fuel Providers, and Aircraft Ground Support

  
 Business Name 
 
 Contact 
 
 Services / Description 
 
Fuel Prices
 
Comments
  
Eagles Nest Airport 609-296-1229
732-740-2510
[web site]
[email]
Airport management, Aviation fuel, Aircraft parking (ramp or tiedown), Hangars, Hangar leasing / sales, Passenger terminal and lounge, Aircraft maintenance, Skydiving, ...

More info about Eagles Nest Airport
Phillips 66
100LL
SS $4.60 
 Updated 19-Oct-2020
 
   2 read write
SS=Self service
Update Fuel Prices
 

Would you like to see your business listed on this page?

 If your business provides an interesting product or service to pilots, flight crews, aircraft, or users of the Eagles Nest Airport, you should consider listing it here.  To start the listing process, click on the button below
 
Add a business
 

Other Pages about Eagles Nest Airport

eaglesnestairport.com
 
Update a link
 
Copyright © AirNav, LLC. All rights reserved. Privacy Policy  Contact